Home > Weather > Meiningen > Past weeks

Flag for Germany Past Weather in Meiningen, Thuringia, Germany — Yesterday and Last 2 Weeks

Now
61 °F

Clear.


Feels Like: 61 °F
Forecast: 51 / 69 °F
Wind: 2 mph from Northwest

Location: Erfurt-Bindersleben

Current Time: Jul 31, 2016 at 5:46:50 AM

Latest Report: Jul 31, 2016 at 5:20 AM


Visibility: 10 mi

Pressure: 29.89 "Hg

Humidity: 77%

Dew Point: 54 °F

Location of MeiningenLocation

Past Weather in Meiningen — Graph

°F

Meiningen Temperature Yesterday

Maximum temperature yesterday: 75 °F (at 4:20 PM)
Minimum temperature yesterday: 59 °F (at 3:20 AM)
Average temperature yesterday: 67 °F

High & Low Weather Summary for the Past Weeks

 TemperatureHumidityPressure
High88 °F (Jul 20, 2:50 PM)100% (Jul 17, 11:50 PM)30.27 "Hg (Jul 17, 11:50 PM)
Low46 °F (Jul 16, 4:50 AM)27% (Jul 20, 2:50 PM)29.89 "Hg (Jul 21, 5:20 AM)
Average69 °F73%30.07 "Hg
* Reported Jul 16 4:20 AM — Jul 31 4:50 AM, Meiningen, Weather by CustomWeather, © 2016

Note: Actual official high and low records may vary slightly from our data, if they occured in-between our weather recording intervals... More about our weather records

Advertising

Meiningen Weather History for the Previous 24 Hours

Scroll right to see more
 ConditionsComfort  
Time TempWeatherWind HumidityBarometerVisibility
4:50 AM
Sun, Jul 31
61 °FClear.2 mph77%29.89 "Hg10 mi
4:20 AM61 °FClear.3 mph83%29.92 "Hg10 mi
3:50 AM63 °FClear.1 mph73%29.89 "Hg10 mi
3:20 AM63 °FClear.2 mph73%29.89 "Hg10 mi
2:50 AM63 °FClear.2 mph77%29.92 "Hg10 mi
2:20 AM63 °FClear.5 mph77%29.92 "Hg10 mi
1:50 AM63 °FClear.3 mph83%29.92 "Hg10 mi
1:20 AM63 °FClear.5 mph77%29.92 "Hg10 mi
12:50 AM63 °FClear.6 mph83%29.92 "Hg10 mi
12:20 AM64 °FClear.3 mph73%29.92 "Hg10 mi
11:50 PM
Sat, Jul 30
64 °FClear.3 mph68%29.92 "Hg10 mi
11:20 PM64 °FClear.No wind68%29.95 "Hg10 mi
10:50 PM66 °FClear.2 mph60%29.95 "Hg10 mi
10:20 PM66 °FClear.5 mph64%29.95 "Hg10 mi
9:50 PM66 °FSunny.5 mph64%29.95 "Hg10 mi
9:20 PM68 °FSunny.6 mph64%29.95 "Hg10 mi
8:50 PM68 °FSunny.5 mph64%29.92 "Hg10 mi
8:20 PM68 °FSunny.6 mph64%29.92 "Hg10 mi
7:50 PM72 °FSunny.8 mph53%29.92 "Hg10 mi
7:20 PM72 °FSunny.9 mph57%29.92 "Hg10 mi
6:50 PM72 °FPassing clouds.12 mph57%29.92 "HgN/A
6:20 PM73 °FPassing clouds.10 mph53%29.92 "HgN/A
5:50 PM73 °FSunny.12 mph53%29.92 "Hg10 mi
5:20 PM73 °FPassing clouds.16 mph53%29.92 "HgN/A
4:50 PM75 °FSunny.17 mph50%29.92 "Hg10 mi
4:20 PM75 °FSunny.14 mph54%29.92 "Hg10 mi
3:50 PM73 °FPassing clouds.15 mph53%29.92 "HgN/A
3:20 PM73 °FScattered clouds.14 mph53%29.92 "HgN/A
2:50 PM73 °FScattered clouds.17 mph53%29.92 "HgN/A
2:20 PM73 °FScattered clouds.18 mph57%29.92 "HgN/A
1:50 PM72 °FScattered clouds.15 mph61%29.92 "HgN/A
1:20 PM72 °FScattered clouds.15 mph61%29.92 "HgN/A
12:50 PM72 °FPassing clouds.15 mph57%29.92 "HgN/A
12:20 PM72 °FPassing clouds.17 mph61%29.92 "HgN/A
11:50 AM73 °FScattered showers. Scattered clouds.16 mph61%29.92 "HgN/A
11:20 AM72 °FScattered clouds.15 mph65%29.92 "HgN/A
10:50 AM70 °FScattered clouds.14 mph73%29.92 "HgN/A
10:20 AM70 °FScattered clouds.8 mph78%29.92 "HgN/A
9:50 AM68 °FScattered clouds.7 mph78%29.92 "HgN/A
9:20 AM68 °FPartly sunny.5 mph83%29.92 "HgN/A
8:50 AM66 °FScattered clouds.7 mph83%29.92 "HgN/A
8:20 AM64 °FSunny.6 mph88%29.92 "Hg10 mi
7:50 AM63 °FScattered clouds.7 mph88%29.92 "HgN/A
7:20 AM61 °FSunny.6 mph94%29.92 "Hg10 mi
6:50 AM61 °FPartly sunny.7 mph94%29.92 "HgN/A
6:20 AM61 °FPartly cloudy.8 mph94%29.92 "HgN/A
5:50 AM59 °FPassing clouds.8 mph94%29.92 "HgN/A
5:20 AM59 °FPassing clouds.8 mph94%29.92 "HgN/A
Weather by CustomWeather, © 2016

See weather overviewHow to use our weather pages